Terminal Aerodrome Forecast
Issued by NWS

Home | Current Version | Previous Version | Text Only | Print | Product List | Glossary On
Versions: 1 2 3 4 5 6 7 8 9 10 11 12 13 14 15 16
209
FTUS45 KTFX 140340 AAA
TAFLWT
TAF AMD
KLWT 140340Z 1404/1424 29011KT P6SM BKN060
     FM140600 28011KT P6SM FEW020 SCT080 SCT200
     FM141900 27011KT P6SM SCT100 BKN180=

USA.gov is the U.S. government's official web portal to all federal, state and local government web resources and services.